Zurück zum Katalog

STARLINK-38282

AktivKommunikationSSO
NORAD 100394·PAYLOAD·🇺🇸 United States

Gestartet Aug 19, 2026 von Vandenberg Space Force Base

Loading…

Nächste Überflüge (nächste 24 Stunden)

TLE

AktuellSource: Space-Track

Epoche: Sep 14, 2026, 14:45 UTC

1 A0394U 26190Z   26257.61472839 -.00998014  00000-0 -94989-2 0  9990
2 A0394  97.2838 111.5962 0001616  74.0096 286.1344 15.69257831  5448

Verfolge STARLINK-38282 in Echtzeit mit AllMySat

Download on the App Store